FW4808 Weather Reports


time (UTC)temp
F
wind
direction
speed
knots
gust
knots
rain 1hr
in
rain 24hr
in
rain mn
in
humidity
%
barometer
mb
20260510095003 51 0 0.0 0.0 0.00 0.00 0.00 100 1011.8
20260510094503 51 0 0.0 0.0 0.00 0.00 0.00 100 1011.7
20260510094003 51 0 0.0 0.0 0.00 0.00 0.00 100 1011.5
20260510093503 51 0 0.0 0.0 0.00 0.00 0.00 100 1011.4
20260510093217 51 0 0.0 0.0 0.00 0.00 0.00 100 1011.3
20260510092503 51 0 0.0 0.0 0.00 0.00 0.00 100 1011.0
20260510092003 51 0 0.0 0.0 0.00 0.00 0.00 100 1011.0
20260510091504 51 0 0.0 0.0 0.00 0.00 0.00 100 1010.9
20260510091004 51 0 0.0 0.0 0.00 0.00 0.00 100 1010.9
20260510090503 51 0 0.0 0.0 0.00 0.00 0.00 100 1010.8
20260510090217 52 0 0.0 0.0 0.00 0.00 0.00 100 1010.9
20260510085503 52 0 0.0 0.0 0.00 0.00 0.00 100 1010.8
20260510085004 52 0 0.0 0.0 0.00 0.00 0.00 100 1010.7
20260510084718 52 0 0.0 0.0 0.00 0.00 0.00 100 1010.7
20260510084003 52 0 0.0 0.0 0.00 0.00 0.00 100 1010.9
20260510083503 52 0 0.0 0.0 0.00 0.00 0.00 100 1010.9
20260510083004 52 0 0.0 0.0 0.00 0.00 0.00 100 1010.8
20260510082503 52 0 0.0 0.0 0.00 0.00 0.00 100 1010.8
20260510082004 51 0 0.0 0.0 0.00 0.00 0.00 100 1010.9
20260510081503 51 0 0.0 0.0 0.00 0.00 0.00 100 1010.9
20260510081004 51 0 0.0 0.0 0.00 0.00 0.00 100 1011.0
20260510080503 51 156 0.0 1.7 0.00 0.00 0.00 100 1011.0
20260510080004 51 156 0.0 1.7 0.00 0.00 0.00 100 1010.9
20260510075503 51 0 0.0 0.0 0.00 0.00 0.00 100 1011.0
20260510075003 51 0 0.0 0.0 0.00 0.00 0.00 99 1011.0
20260510074503 52 0 0.0 0.0 0.00 0.00 0.00 99 1010.9
20260510074003 52 0 0.0 0.0 0.00 0.00 0.00 99 1010.8
20260510073504 52 16 0.0 1.7 0.00 0.00 0.00 98 1010.7
20260510073004 52 16 0.0 2.6 0.00 0.00 0.00 98 1010.5
20260510072504 52 16 0.0 2.6 0.00 0.00 0.00 98 1010.8
20260510072003 53 0 0.0 0.0 0.00 0.00 0.00 97 1010.8
20260510071503 53 0 0.0 0.0 0.00 0.00 0.00 97 1010.6
20260510071003 53 0 0.0 0.0 0.00 0.00 0.00 97 1010.6
20260510070503 53 0 0.0 0.0 0.00 0.00 0.00 96 1010.6
20260510070218 53 0 0.0 0.0 0.00 0.00 0.00 96 1010.6
20260510065717 53 0 0.0 0.0 0.00 0.00 0.00 96 1010.6
20260510065003 54 0 0.0 0.0 0.00 0.00 0.00 96 1010.5
20260510064503 54 0 0.0 0.0 0.00 0.00 0.00 95 1010.3
20260510064003 54 0 0.0 0.0 0.00 0.00 0.00 95 1010.3
20260510063503 54 0 0.0 0.0 0.00 0.00 0.00 94 1010.2
20260510063218 54 0 0.0 0.0 0.00 0.00 0.00 94 1010.1
20260510062504 54 0 0.0 0.0 0.00 0.00 0.00 94 1010.1
20260510062003 54 0 0.0 0.0 0.00 0.00 0.00 94 1010.1
20260510061717 54 0 0.0 0.0 0.00 0.00 0.00 94 1010.1
20260510061003 55 0 0.0 0.0 0.00 0.00 0.00 94 1010.2
20260510060503 55 0 0.0 0.0 0.00 0.00 0.00 94 1010.2
20260510060004 55 0 0.0 0.0 0.00 0.00 0.00 94 1010.1
20260510055717 55 167 0.0 3.5 0.00 0.00 0.00 94 1010.1
20260510055004 55 166 0.0 3.5 0.00 0.00 0.00 94 1010.1
20260510054503 55 139 0.0 3.5 0.00 0.00 0.00 94 1010.1
20260510054003 55 134 0.9 3.5 0.00 0.00 0.00 94 1010.1
20260510053504 55 139 0.0 3.5 0.00 0.00 0.00 94 1010.1
20260510053003 55 159 0.0 3.5 0.00 0.00 0.00 94 1010.1
20260510052503 55 0 0.0 0.0 0.00 0.00 0.00 93 1010.2
20260510052003 55 162 0.0 6.1 0.00 0.00 0.00 93 1010.1
20260510051504 56 162 0.0 6.1 0.00 0.00 0.00 93 1010.1
20260510051004 56 144 0.9 6.1 0.00 0.00 0.00 93 1010.1
20260510050719 55 146 0.9 6.1 0.00 0.00 0.00 93 1010.1
20260510050217 55 158 0.0 3.5 0.00 0.00 0.00 93 1010.1
20260510045504 56 140 0.0 2.6 0.00 0.00 0.00 93 1010.2
20260510045003 56 140 0.0 2.6 0.00 0.00 0.00 93 1010.2
20260510044504 56 157 0.0 2.6 0.00 0.00 0.00 93 1010.3
20260510044003 56 157 0.0 2.6 0.00 0.00 0.00 92 1010.3
20260510043503 56 0 0.0 0.0 0.00 0.00 0.00 92 1010.3
20260510043003 56 137 0.0 3.5 0.00 0.00 0.00 92 1010.3
20260510042718 56 137 0.0 3.5 0.00 0.00 0.00 92 1010.3
20260510042217 56 133 0.0 1.7 0.00 0.00 0.00 92 1010.3
20260510041718 56 140 0.0 2.6 0.00 0.00 0.00 92 1010.2
20260510041003 56 142 0.0 2.6 0.00 0.00 0.00 92 1010.2
20260510040503 56 149 0.0 1.7 0.00 0.00 0.00 92 1010.3
20260510040004 56 151 0.0 1.7 0.00 0.00 0.00 91 1010.2
20260510035504 56 0 0.0 0.0 0.00 0.00 0.00 91 1010.2
20260510035003 56 0 0.0 0.0 0.00 0.00 0.00 91 1010.2
20260510034718 56 0 0.0 0.0 0.00 0.00 0.00 91 1010.2
20260510034217 56 0 0.0 0.0 0.00 0.00 0.00 91 1010.2
20260510033503 56 0 0.0 0.0 0.00 0.00 0.00 90 1010.3
20260510033004 57 0 0.0 0.0 0.00 0.00 0.00 90 1010.3
20260510032503 57 0 0.0 0.0 0.00 0.00 0.00 89 1010.3
20260510032003 57 0 0.0 0.0 0.00 0.00 0.00 89 1010.3
20260510031718 57 0 0.0 0.0 0.00 0.00 0.00 89 1010.3
20260510031219 57 0 0.0 0.0 0.00 0.00 0.00 89 1010.3
20260510030504 57 0 0.0 0.0 0.00 0.00 0.00 88 1010.3
20260510030003 57 142 0.0 2.6 0.00 0.00 0.00 88 1010.3
20260510025503 58 137 0.9 5.2 0.00 0.00 0.00 88 1010.2
20260510025004 58 143 0.9 5.2 0.00 0.00 0.00 87 1010.2
20260510024504 58 155 0.0 4.3 0.00 0.00 0.00 87 1010.1
20260510024003 58 137 0.9 6.1 0.00 0.00 0.00 87 1010.2
20260510023718 58 137 0.9 6.1 0.00 0.00 0.00 86 1010.0
20260510023003 58 134 0.9 5.2 0.00 0.00 0.00 86 1010.0
20260510022504 58 133 0.9 5.2 0.00 0.00 0.00 85 1010.0
20260510022003 58 137 0.9 6.1 0.00 0.00 0.00 85 1009.9
20260510021503 58 139 1.7 7.0 0.00 0.00 0.00 85 1009.9
20260510021003 58 139 1.7 10.4 0.00 0.00 0.00 84 1009.8
20260510020503 59 138 1.7 10.4 0.00 0.00 0.00 84 1009.7
20260510020004 59 138 1.7 5.2 0.00 0.00 0.00 84 1009.8
20260510015503 59 138 0.9 6.1 0.00 0.00 0.00 84 1009.7
20260510015003 59 138 0.9 6.1 0.00 0.00 0.00 84 1009.7
20260510014503 59 138 0.9 5.2 0.00 0.00 0.00 84 1009.7
20260510014003 59 130 0.0 2.6 0.00 0.00 0.00 83 1009.7
20260510013504 59 0 0.0 0.0 0.00 0.00 0.00 83 1009.7
20260510013004 59 134 0.0 5.2 0.00 0.00 0.00 82 1009.7
20260510012503 59 142 0.0 5.2 0.00 0.00 0.00 82 1009.6
20260510012218 59 140 0.9 5.2 0.00 0.00 0.00 82 1009.5
20260510011504 60 138 0.9 5.2 0.00 0.00 0.00 81 1009.4
20260510011003 60 137 0.9 4.3 0.00 0.00 0.00 81 1009.3
20260510010717 60 136 1.7 4.3 0.00 0.00 0.00 80 1009.3
20260510010004 60 138 1.7 7.0 0.00 0.00 0.00 79 1009.2
20260510005504 60 138 0.9 7.8 0.00 0.00 0.00 79 1009.0
20260510005003 60 138 1.7 7.8 0.00 0.00 0.00 78 1009.0
20260510004503 60 137 1.7 7.8 0.00 0.00 0.00 77 1008.9
20260510004004 61 138 1.7 6.1 0.00 0.00 0.00 76 1008.7
20260510003503 61 138 1.7 6.1 0.00 0.00 0.00 75 1008.8
20260510003003 61 136 1.7 6.1 0.00 0.00 0.00 74 1008.8
20260510002503 62 139 0.9 6.1 0.00 0.00 0.00 73 1008.7
20260510002218 62 141 0.9 3.5 0.00 0.00 0.00 73 1008.7
20260510001717 62 147 0.9 6.1 0.00 0.00 0.00 72 1008.7
20260510001003 62 144 0.9 5.2 0.00 0.00 0.00 71 1008.7
20260510000717 62 137 0.9 5.2 0.00 0.00 0.00 71 1008.7
20260510000004 62 140 0.0 5.2 0.00 0.00 0.00 70 1008.7
20260509235503 63 140 0.0 2.6 0.00 0.00 0.00 70 1008.7
20260509235003 63 140 0.0 3.5 0.00 0.00 0.00 69 1008.8
20260509234503 63 141 0.0 3.5 0.00 0.00 0.00 69 1008.8
20260509234218 63 144 0.0 3.5 0.00 0.00 0.00 68 1008.8
20260509233503 64 77 0.0 1.7 0.00 0.00 0.00 68 1008.7
20260509233003 64 76 0.0 1.7 0.00 0.00 0.00 67 1008.7
20260509232503 64 117 0.0 1.7 0.00 0.00 0.00 67 1008.6
20260509232003 64 80 0.0 3.5 0.00 0.00 0.00 67 1008.7
20260509231716 64 69 0.0 3.5 0.00 0.00 0.00 66 1008.6
20260509231004 64 0 0.0 0.0 0.00 0.00 0.00 66 1008.6
20260509230503 64 0 0.0 0.0 0.00 0.00 0.00 65 1008.6
20260509230003 64 0 0.0 0.0 0.00 0.00 0.00 65 1008.6
20260509225504 64 0 0.0 0.0 0.00 0.00 0.00 65 1008.7
20260509225004 64 0 0.0 0.0 0.00 0.00 0.00 65 1008.6
20260509224503 64 153 0.0 0.9 0.00 0.00 0.00 65 1008.6
20260509224003 64 141 0.0 2.6 0.00 0.00 0.00 65 1008.6
20260509223503 64 65 0.0 2.6 0.00 0.00 0.00 65 1008.7
20260509223219 64 13 0.0 2.6 0.00 0.00 0.00 65 1008.7
20260509222503 64 24 0.0 3.5 0.00 0.00 0.00 65 1008.6
20260509222003 65 40 0.0 2.6 0.00 0.00 0.00 64 1008.6
20260509221503 64 123 0.0 2.6 0.00 0.00 0.00 65 1008.5
20260509221004 64 141 0.0 2.6 0.00 0.00 0.00 64 1008.5
20260509220504 64 167 0.0 1.7 0.00 0.00 0.00 65 1008.5
20260509220004 64 0 0.0 0.0 0.00 0.00 0.00 65 1008.5
20260509215503 64 40 0.0 3.5 0.00 0.00 0.00 65 1008.6
20260509215003 64 47 0.0 4.3 0.00 0.00 0.00 65 1008.7
20260509214718 64 48 0.9 5.2 0.00 0.00 0.00 65 1008.7
20260509214003 64 50 0.9 7.0 0.00 0.00 0.00 65 1008.7
20260509213503 64 52 0.0 7.0 0.00 0.00 0.00 64 1008.7
20260509213003 64 45 0.0 2.6 0.00 0.00 0.00 64 1008.8
20260509212503 64 54 0.0 2.6 0.00 0.00 0.00 64 1008.8
20260509212003 64 130 0.0 1.7 0.00 0.00 0.00 64 1008.9
20260509211503 64 129 0.0 1.7 0.00 0.00 0.00 65 1008.8
20260509211003 63 46 0.9 7.0 0.00 0.00 0.00 65 1008.8
20260509210503 63 43 0.9 7.0 0.00 0.00 0.00 65 1008.9
20260509210004 64 43 0.9 5.2 0.00 0.00 0.00 64 1008.9
20260509205504 64 51 0.0 5.2 0.00 0.00 0.00 64 1008.8
20260509205004 64 53 0.0 2.6 0.00 0.00 0.00 63 1008.7
20260509204718 64 55 0.0 2.6 0.00 0.00 0.00 62 1008.7
20260509204003 64 52 0.0 3.5 0.00 0.00 0.00 63 1008.7
20260509203503 64 49 0.0 3.5 0.00 0.00 0.00 63 1008.8
20260509203003 64 36 0.0 2.6 0.00 0.00 0.00 63 1008.7
20260509202503 64 38 0.9 3.5 0.00 0.00 0.00 62 1008.7
20260509202003 64 49 0.0 3.5 0.00 0.00 0.00 62 1008.7
20260509201717 65 89 0.0 3.5 0.00 0.00 0.00 62 1008.8
20260509201003 64 137 0.9 4.3 0.00 0.00 0.00 61 1008.8
20260509200503 64 143 0.0 3.5 0.00 0.00 0.00 61 1008.8
20260509200004 64 138 0.0 3.5 0.00 0.00 0.00 62 1008.8
20260509195503 64 135 0.0 3.5 0.00 0.00 0.00 62 1008.9
20260509195003 64 140 0.0 3.5 0.00 0.00 0.00 62 1009.0
20260509194503 64 140 0.0 3.5 0.00 0.00 0.00 62 1009.2
20260509194218 64 143 0.0 3.5 0.00 0.00 0.00 62 1009.1
20260509193717 64 137 0.0 2.6 0.00 0.00 0.00 62 1009.1
20260509193004 64 139 0.9 6.1 0.00 0.00 0.00 62 1009.1
20260509192717 64 140 0.9 6.1 0.00 0.00 0.00 62 1009.0
20260509192004 64 137 0.0 3.5 0.00 0.00 0.00 62 1009.2
20260509191503 64 125 0.0 3.5 0.00 0.00 0.00 62 1009.2
20260509191003 64 135 0.9 5.2 0.00 0.00 0.00 60 1009.3
20260509190503 64 139 0.9 6.1 0.00 0.00 0.00 60 1009.3
20260509190003 64 147 0.9 6.1 0.00 0.00 0.00 61 1009.4
20260509185503 64 141 1.7 7.8 0.00 0.00 0.00 61 1009.3
20260509185003 63 139 0.9 7.8 0.00 0.00 0.00 60 1009.4
20260509184503 63 137 0.9 7.8 0.00 0.00 0.00 62 1009.4
20260509184004 63 134 0.9 7.8 0.00 0.00 0.00 61 1009.4
20260509183717 63 122 0.9 4.3 0.00 0.00 0.00 64 1009.3
20260509183003 62 145 0.9 5.2 0.00 0.00 0.00 64 1009.5
20260509182504 62 152 0.0 3.5 0.00 0.00 0.00 65 1009.7
20260509182003 61 101 0.0 2.6 0.00 0.00 0.00 69 1010.0
20260509181503 61 76 0.0 2.6 0.00 0.00 0.00 70 1010.0
20260509181003 60 17 0.0 3.5 0.00 0.00 0.00 70 1010.0
20260509180503 60 13 0.0 3.5 0.00 0.00 0.00 69 1010.2
20260509180004 60 20 0.0 2.6 0.00 0.00 0.00 69 1010.4
20260509175503 60 143 0.0 2.6 0.00 0.00 0.00 70 1010.5
20260509175217 60 143 0.0 2.6 0.00 0.00 0.00 72 1010.4
20260509174504 60 0 0.0 0.0 0.00 0.00 0.00 70 1010.6
20260509174004 60 0 0.0 0.0 0.00 0.00 0.00 66 1010.8
20260509173504 60 0 0.0 0.0 0.00 0.00 0.00 64 1010.9
20260509173003 60 0 0.0 0.0 0.00 0.00 0.00 64 1011.0
20260509172718 60 0 0.0 0.0 0.00 0.00 0.00 64 1011.0
20260509172217 60 0 0.0 0.0 0.00 0.00 0.00 64 1010.8
20260509171503 60 0 0.0 0.0 0.00 0.00 0.00 63 1010.8
20260509171217 60 137 0.0 3.5 0.00 0.00 0.00 64 1010.7
20260509170504 60 87 0.0 3.5 0.00 0.00 0.00 64 1010.6
20260509170217 60 27 0.0 2.6 0.00 0.00 0.00 64 1010.6
20260509165503 60 26 0.0 2.6 0.00 0.00 0.00 63 1010.9
20260509165217 60 22 0.0 0.9 0.00 0.00 0.00 64 1010.9
20260509164504 60 23 0.0 1.7 0.00 0.00 0.00 63 1010.9
20260509164003 60 23 0.0 3.5 0.00 0.00 0.00 62 1011.0
20260509163504 61 23 0.0 3.5 0.00 0.00 0.00 62 1010.9
20260509163003 61 0 0.0 0.0 0.00 0.00 0.00 62 1010.9
20260509162503 61 0 0.0 0.0 0.00 0.00 0.00 62 1011.0
20260509162004 61 0 0.0 0.0 0.00 0.00 0.00 62 1011.0
20260509161718 61 0 0.0 0.0 0.00 0.00 0.00 61 1011.0
20260509161217 61 0 0.0 0.0 0.00 0.00 0.00 61 1011.0
20260509160503 62 265 0.0 3.5 0.00 0.00 0.00 60 1010.9
20260509160219 62 268 0.0 3.5 0.00 0.00 0.00 62 1011.0
20260509155503 61 331 0.0 1.7 0.00 0.00 0.00 60 1011.0
20260509155217 62 297 0.0 3.5 0.00 0.00 0.00 60 1010.9
20260509154504 62 289 0.0 3.5 0.00 0.00 0.00 59 1011.0
20260509154216 61 289 0.0 3.5 0.00 0.00 0.00 59 1011.0
20260509153503 60 233 0.0 0.9 0.00 0.00 0.00 62 1011.1
20260509153003 59 0 0.0 0.0 0.00 0.00 0.00 63 1011.2
20260509152718 59 0 0.0 0.0 0.00 0.00 0.00 66 1011.3
20260509152218 59 0 0.0 0.0 0.00 0.00 0.00 67 1011.3
20260509151717 58 0 0.0 0.0 0.00 0.00 0.00 79 1011.4
20260509151004 57 152 0.9 3.5 0.00 0.00 0.00 78 1011.5
20260509150717 57 148 0.9 3.5 0.00 0.00 0.00 77 1011.5
20260509150003 56 129 0.0 3.5 0.00 0.00 0.00 75 1011.3
20260509145504 56 121 0.0 2.6 0.00 0.00 0.00 75 1011.3
20260509145004 57 121 0.0 2.6 0.00 0.00 0.00 73 1011.3
20260509144717 57 0 0.0 0.0 0.00 0.00 0.00 73 1011.2
20260509144004 57 0 0.0 0.0 0.00 0.00 0.00 71 1011.4
20260509143503 57 0 0.0 0.0 0.00 0.00 0.00 68 1011.3
20260509143004 57 0 0.0 0.0 0.00 0.00 0.00 65 1011.3
20260509142504 58 0 0.0 0.0 0.00 0.00 0.00 63 1011.4
20260509142003 58 0 0.0 0.0 0.00 0.00 0.00 64 1011.3
20260509141503 58 0 0.0 0.0 0.00 0.00 0.00 65 1011.4
20260509141004 58 0 0.0 0.0 0.00 0.00 0.00 64 1011.3
20260509140717 58 0 0.0 0.0 0.00 0.00 0.00 64 1011.2
20260509140004 58 0 0.0 0.0 0.00 0.00 0.00 63 1011.2
20260509135503 58 0 0.0 0.0 0.00 0.00 0.00 64 1011.2
20260509135003 58 0 0.0 0.0 0.00 0.00 0.00 63 1011.3
20260509134503 58 0 0.0 0.0 0.00 0.00 0.00 62 1011.0
20260509134003 58 0 0.0 0.0 0.00 0.00 0.00 62 1011.1
20260509133717 58 0 0.0 0.0 0.00 0.00 0.00 62 1011.1
20260509133004 57 0 0.0 0.0 0.00 0.00 0.00 62 1011.0
20260509132503 57 0 0.0 0.0 0.00 0.00 0.00 63 1010.9
20260509132003 58 0 0.0 0.0 0.00 0.00 0.00 63 1010.8
20260509131503 58 0 0.0 0.0 0.00 0.00 0.00 62 1010.9
20260509131003 58 0 0.0 0.0 0.00 0.00 0.00 62 1011.0
20260509130503 58 168 0.0 0.9 0.00 0.00 0.00 62 1011.1
20260509130004 58 170 0.0 0.9 0.00 0.00 0.00 62 1011.0
20260509125503 58 174 0.0 0.9 0.00 0.00 0.00 62 1011.0
20260509125003 58 153 0.0 1.7 0.00 0.00 0.00 62 1011.0
20260509124503 58 153 0.0 1.7 0.00 0.00 0.00 61 1010.9
20260509124004 58 0 0.0 0.0 0.00 0.00 0.00 60 1010.9
20260509123503 58 172 0.0 3.5 0.00 0.00 0.00 61 1010.9
20260509123003 57 175 0.0 3.5 0.00 0.00 0.00 60 1011.0
20260509122504 57 186 0.0 4.3 0.00 0.00 0.00 60 1010.9
20260509122004 57 188 0.0 4.3 0.00 0.00 0.00 59 1011.0
20260509121503 58 0 0.0 0.0 0.00 0.00 0.00 59 1011.1
20260509121004 57 0 0.0 0.0 0.00 0.00 0.00 59 1011.0
20260509120503 57 182 0.0 0.9 0.00 0.00 0.00 59 1011.1
20260509120004 57 183 0.0 4.3 0.00 0.00 0.00 60 1011.0
20260509115503 57 183 0.0 4.3 0.00 0.00 0.00 60 1011.1
20260509115004 57 0 0.0 0.0 0.00 0.00 0.00 61 1011.0
20260509114503 57 0 0.0 0.0 0.00 0.00 0.00 61 1010.9
20260509114217 57 0 0.0 0.0 0.00 0.00 0.00 61 1010.9
20260509113503 56 0 0.0 0.0 0.00 0.00 0.00 62 1010.9
20260509113003 56 0 0.0 0.0 0.00 0.00 0.00 61 1010.8
20260509112503 56 0 0.0 0.0 0.00 0.00 0.00 61 1010.6
20260509112003 56 0 0.0 0.0 0.00 0.00 0.00 62 1010.5
20260509111503 56 0 0.0 0.0 0.00 0.00 0.00 62 1010.4
20260509111003 56 0 0.0 0.0 0.00 0.00 0.00 62 1010.5
20260509110718 56 0 0.0 0.0 0.00 0.00 0.00 62 1010.4
20260509110217 55 0 0.0 0.0 0.00 0.00 0.00 61 1010.3
20260509105503 55 0 0.0 0.0 0.00 0.00 0.00 61 1010.2
20260509105003 55 0 0.0 0.0 0.00 0.00 0.00 61 1010.2
20260509104504 55 0 0.0 0.0 0.00 0.00 0.00 61 1010.3
20260509104003 55 0 0.0 0.0 0.00 0.00 0.00 62 1010.3
20260509103504 55 0 0.0 0.0 0.00 0.00 0.00 62 1010.3
20260509103004 55 0 0.0 0.0 0.00 0.00 0.00 62 1010.3
20260509102718 55 0 0.0 0.0 0.00 0.00 0.00 62 1010.3
20260509102219 55 0 0.0 0.0 0.00 0.00 0.00 62 1010.3
20260509101503 55 0 0.0 0.0 0.00 0.00 0.00 62 1010.3
20260509101003 55 0 0.0 0.0 0.00 0.00 0.00 61 1010.2
20260509100503 55 0 0.0 0.0 0.00 0.00 0.00 61 1010.2
20260509100004 55 0 0.0 0.0 0.00 0.00 0.00 61 1010.1
20260509095504 55 0 0.0 0.0 0.00 0.00 0.00 61 1010.2